TimeCDT,TemperatureF,Dew PointF,Humidity,Sea Level PressureIn,VisibilityMPH,Wind Direction,Wind SpeedMPH,Gust SpeedMPH,PrecipitationIn,Events,Conditions,WindDirDegrees,DateUTC
12:15 AM,50.9,43.7,76,30.11,10.0,ESE,5.8,-,N/A,,Clear,120,2013-09-14 05:15:00
12:35 AM,51.1,43.0,74,30.11,10.0,ESE,5.8,-,N/A,,Clear,120,2013-09-14 05:35:00
12:55 AM,51.1,42.8,73,30.11,10.0,ESE,5.8,-,N/A,,Clear,120,2013-09-14 05:55:00
1:15 AM,50.0,42.4,75,30.11,10.0,ESE,4.6,-,N/A,,Clear,120,2013-09-14 06:15:00
1:35 AM,49.8,42.3,75,30.11,10.0,SE,4.6,-,N/A,,Clear,130,2013-09-14 06:35:00
1:55 AM,50.2,42.4,75,30.11,10.0,SE,4.6,-,N/A,,Clear,140,2013-09-14 06:55:00
2:15 AM,49.6,42.4,76,30.11,10.0,SE,4.6,-,N/A,,Clear,130,2013-09-14 07:15:00
2:35 AM,48.4,41.9,78,30.11,10.0,ESE,4.6,-,N/A,,Clear,120,2013-09-14 07:35:00
2:55 AM,47.8,41.9,80,30.11,10.0,ESE,3.5,-,N/A,,Clear,110,2013-09-14 07:55:00
3:15 AM,47.7,41.5,79,30.11,10.0,ESE,3.5,-,N/A,,Clear,110,2013-09-14 08:15:00
3:35 AM,46.9,41.4,81,30.11,10.0,ESE,3.5,-,N/A,,Clear,110,2013-09-14 08:35:00
3:55 AM,46.4,41.4,83,30.11,10.0,SE,3.5,-,N/A,,Clear,130,2013-09-14 08:55:00
4:15 AM,44.8,40.1,84,30.11,10.0,Calm,Calm,-,N/A,,Clear,0,2013-09-14 09:15:00
4:35 AM,45.5,41.5,86,30.11,10.0,Calm,Calm,-,N/A,,Clear,0,2013-09-14 09:35:00
4:55 AM,45.5,41.0,84,30.11,10.0,SSE,3.5,-,N/A,,Clear,150,2013-09-14 09:55:00
5:15 AM,43.7,39.7,86,30.11,10.0,SSE,3.5,-,N/A,,Clear,150,2013-09-14 10:15:00
5:35 AM,43.9,39.9,86,30.11,10.0,SSE,3.5,-,N/A,,Clear,150,2013-09-14 10:35:00
5:55 AM,43.9,39.9,86,30.11,10.0,SSE,3.5,-,N/A,,Clear,160,2013-09-14 10:55:00
6:15 AM,43.7,40.3,88,30.11,10.0,SSE,5.8,-,N/A,,Clear,160,2013-09-14 11:15:00
6:35 AM,43.7,40.5,88,30.11,10.0,SSE,4.6,-,N/A,,Clear,160,2013-09-14 11:35:00
6:55 AM,43.0,39.9,89,30.11,10.0,SSE,4.6,-,N/A,,Clear,150,2013-09-14 11:55:00
7:15 AM,43.2,40.1,89,30.11,10.0,SSE,3.5,-,N/A,,Clear,150,2013-09-14 12:15:00
7:35 AM,43.7,40.3,88,30.11,10.0,SE,4.6,-,N/A,,Clear,140,2013-09-14 12:35:00
7:55 AM,45.1,41.5,87,30.11,10.0,SE,4.6,-,N/A,,Clear,130,2013-09-14 12:55:00
8:15 AM,48.7,43.5,82,30.11,10.0,Calm,Calm,-,N/A,,Clear,0,2013-09-14 13:15:00
8:35 AM,52.3,44.4,74,30.12,10.0,South,4.6,-,N/A,,Clear,190,2013-09-14 13:35:00
8:55 AM,56.3,43.7,63,30.13,10.0,SSW,5.8,-,N/A,,Clear,200,2013-09-14 13:55:00
9:15 AM,58.6,43.5,57,30.12,10.0,South,9.2,-,N/A,,Clear,190,2013-09-14 14:15:00
9:35 AM,61.5,42.3,49,30.11,10.0,South,11.5,-,N/A,,Clear,190,2013-09-14 14:35:00
9:55 AM,64.6,40.6,42,30.11,10.0,South,12.7,18.4,N/A,,Clear,180,2013-09-14 14:55:00
10:15 AM,66.6,40.1,38,30.11,10.0,South,12.7,-,N/A,,Clear,190,2013-09-14 15:15:00
10:35 AM,68.7,37.2,31,30.10,10.0,South,13.8,-,N/A,,Clear,180,2013-09-14 15:35:00
10:55 AM,70.0,36.1,29,30.09,10.0,South,10.4,-,N/A,,Clear,190,2013-09-14 15:55:00
11:15 AM,69.3,36.9,30,30.09,10.0,South,10.4,16.1,N/A,,Clear,190,2013-09-14 16:15:00
11:35 AM,70.3,38.1,31,30.09,10.0,South,9.2,-,N/A,,Clear,190,2013-09-14 16:35:00
11:55 AM,70.7,36.9,29,30.08,10.0,South,11.5,16.1,N/A,,Clear,190,2013-09-14 16:55:00
12:15 PM,72.5,36.9,27,30.07,10.0,South,9.2,19.6,N/A,,Clear,190,2013-09-14 17:15:00
12:35 PM,74.7,37.0,26,30.06,10.0,South,11.5,17.3,N/A,,Clear,170,2013-09-14 17:35:00
12:55 PM,73.2,37.2,27,30.06,10.0,South,12.7,16.1,N/A,,Clear,180,2013-09-14 17:55:00
1:15 PM,74.5,37.0,26,30.04,10.0,South,9.2,18.4,N/A,,Scattered Clouds,180,2013-09-14 18:15:00
1:35 PM,73.6,36.7,26,30.04,10.0,South,8.1,16.1,N/A,,Scattered Clouds,180,2013-09-14 18:35:00
1:55 PM,73.9,37.2,26,30.02,10.0,South,10.4,16.1,N/A,,Clear,190,2013-09-14 18:55:00
2:15 PM,76.3,36.7,24,30.01,10.0,SSW,12.7,20.7,N/A,,Clear,200,2013-09-14 19:15:00
2:35 PM,75.6,36.0,24,30.00,10.0,South,9.2,18.4,N/A,,Clear,190,2013-09-14 19:35:00
2:55 PM,77.2,35.8,22,29.99,10.0,South,12.7,-,N/A,,Clear,180,2013-09-14 19:55:00
3:15 PM,75.7,36.0,24,29.99,10.0,South,13.8,19.6,N/A,,Clear,180,2013-09-14 20:15:00
3:35 PM,77.7,34.5,21,29.98,10.0,South,13.8,20.7,N/A,,Clear,190,2013-09-14 20:35:00
3:55 PM,77.5,34.7,21,29.98,10.0,South,13.8,19.6,N/A,,Clear,190,2013-09-14 20:55:00
4:15 PM,74.8,35.8,24,29.97,10.0,SSW,12.7,19.6,N/A,,Clear,200,2013-09-14 21:15:00
4:35 PM,75.2,36.0,24,29.96,10.0,South,9.2,18.4,N/A,,Clear,170,2013-09-14 21:35:00
4:55 PM,76.1,37.0,24,29.96,10.0,South,9.2,-,N/A,,Clear,170,2013-09-14 21:55:00
5:15 PM,76.3,35.1,22,29.95,10.0,SSW,13.8,18.4,N/A,,Clear,200,2013-09-14 22:15:00
5:35 PM,74.8,35.6,24,29.95,10.0,South,11.5,-,N/A,,Clear,190,2013-09-14 22:35:00
5:55 PM,74.5,34.7,23,29.94,10.0,South,11.5,-,N/A,,Clear,190,2013-09-14 22:55:00
6:15 PM,73.9,35.6,25,29.94,10.0,South,6.9,-,N/A,,Clear,180,2013-09-14 23:15:00
6:35 PM,73.0,35.8,26,29.94,10.0,South,6.9,-,N/A,,Clear,180,2013-09-14 23:35:00
6:55 PM,71.8,37.8,29,29.94,10.0,South,4.6,-,N/A,,Clear,180,2013-09-14 23:55:00
7:15 PM,70.7,38.7,31,29.94,10.0,South,4.6,-,N/A,,Scattered Clouds,180,2013-09-15 00:15:00
7:35 PM,69.4,40.8,35,29.93,10.0,SSE,3.5,-,N/A,,Scattered Clouds,160,2013-09-15 00:35:00
7:55 PM,68.7,41.9,38,29.93,10.0,SSE,5.8,-,N/A,,Scattered Clouds,160,2013-09-15 00:55:00
8:15 PM,67.6,43.7,42,29.93,10.0,SSE,4.6,-,N/A,Rain,Light Rain,160,2013-09-15 01:15:00
8:35 PM,64.6,49.1,57,29.93,10.0,South,5.8,-,N/A,Rain,Light Rain,170,2013-09-15 01:35:00
8:55 PM,64.4,48.7,57,29.92,10.0,SSE,6.9,-,N/A,,Scattered Clouds,150,2013-09-15 01:55:00
9:15 PM,63.9,48.6,57,29.92,10.0,SSE,6.9,-,N/A,,Scattered Clouds,160,2013-09-15 02:15:00
9:35 PM,64.0,48.2,56,29.91,10.0,SSE,6.9,-,N/A,,Scattered Clouds,160,2013-09-15 02:35:00
9:55 PM,65.3,46.9,51,29.91,10.0,SSE,6.9,-,N/A,,Scattered Clouds,160,2013-09-15 02:55:00
10:15 PM,65.3,46.8,51,29.91,10.0,South,4.6,-,N/A,,Mostly Cloudy,170,2013-09-15 03:15:00
10:35 PM,65.5,46.8,51,29.91,10.0,South,6.9,-,N/A,,Mostly Cloudy,170,2013-09-15 03:35:00
10:55 PM,65.3,47.3,52,29.91,10.0,South,4.6,-,N/A,,Mostly Cloudy,170,2013-09-15 03:55:00
11:15 PM,65.3,47.8,53,29.91,10.0,South,5.8,-,N/A,,Overcast,170,2013-09-15 04:15:00
11:35 PM,65.8,47.8,52,29.91,10.0,South,6.9,-,N/A,,Overcast,190,2013-09-15 04:35:00
11:55 PM,66.6,47.5,50,29.90,10.0,South,9.2,-,N/A,,Overcast,180,2013-09-15 04:55:00